| time (UTC) | temp F | wind direction | speed knots | gust knots | rain 1hr in | rain 24hr in | rain mn in | humidity % | barometer mb |
| 20260505051704 | 64 | 192 | 7.8 | 13.9 | 0.00 | 0.00 | 0.00 | 69 | 1010.1 |
| 20260505051205 | 64 | 182 | 7.8 | 13.9 | 0.00 | 0.00 | 0.00 | 69 | 1009.9 |
| 20260505050705 | 64 | 189 | 7.0 | 13.0 | 0.00 | 0.00 | 0.00 | 68 | 1010.0 |
| 20260505050204 | 64 | 198 | 8.7 | 13.0 | 0.00 | 0.00 | 0.00 | 67 | 1010.0 |
| 20260505041205 | 64 | 191 | 7.8 | 13.0 | 0.00 | 0.00 | 0.00 | 64 | 1009.9 |
| 20260505040705 | 64 | 200 | 7.8 | 11.3 | 0.00 | 0.00 | 0.00 | 65 | 1009.9 |
| 20260505035705 | 64 | 199 | 7.0 | 11.3 | 0.00 | 0.00 | 0.00 | 65 | 1009.9 |
| 20260505035205 | 64 | 203 | 7.8 | 13.0 | 0.00 | 0.00 | 0.00 | 65 | 1009.9 |
| 20260505034704 | 64 | 203 | 7.8 | 13.0 | 0.00 | 0.00 | 0.00 | 66 | 1009.8 |
| 20260505034205 | 65 | 201 | 7.0 | 11.3 | 0.00 | 0.00 | 0.00 | 66 | 1009.9 |
| 20260505033705 | 65 | 192 | 7.0 | 11.3 | 0.00 | 0.00 | 0.00 | 66 | 1009.8 |
| 20260505033205 | 65 | 194 | 7.0 | 10.4 | 0.00 | 0.00 | 0.00 | 66 | 1009.8 |
| 20260505032705 | 65 | 200 | 7.8 | 10.4 | 0.00 | 0.00 | 0.00 | 66 | 1009.9 |
| 20260505032204 | 65 | 201 | 7.8 | 13.0 | 0.00 | 0.00 | 0.00 | 65 | 1009.8 |
| 20260505031705 | 65 | 192 | 8.7 | 12.2 | 0.00 | 0.00 | 0.00 | 65 | 1009.8 |
| 20260505031205 | 65 | 188 | 7.8 | 12.2 | 0.00 | 0.00 | 0.00 | 65 | 1009.9 |
| 20260505025705 | 64 | 184 | 6.1 | 10.4 | 0.00 | 0.00 | 0.00 | 66 | 1009.6 |
| 20260505025205 | 64 | 176 | 5.2 | 10.4 | 0.00 | 0.00 | 0.00 | 67 | 1009.7 |
| 20260505024704 | 64 | 176 | 6.1 | 11.3 | 0.00 | 0.00 | 0.00 | 67 | 1009.7 |
| 20260505024204 | 65 | 191 | 6.1 | 12.2 | 0.00 | 0.00 | 0.00 | 66 | 1009.8 |
| 20260505023204 | 65 | 184 | 5.2 | 10.4 | 0.00 | 0.00 | 0.00 | 66 | 1009.8 |
| 20260505022204 | 65 | 185 | 6.1 | 10.4 | 0.00 | 0.00 | 0.00 | 66 | 1009.7 |
| 20260505021704 | 65 | 181 | 5.2 | 11.3 | 0.00 | 0.00 | 0.00 | 66 | 1009.7 |
| 20260505021205 | 65 | 181 | 7.0 | 10.4 | 0.00 | 0.00 | 0.00 | 66 | 1009.7 |
| 20260505020705 | 65 | 196 | 6.1 | 10.4 | 0.00 | 0.00 | 0.00 | 66 | 1009.8 |
| 20260505020204 | 65 | 185 | 6.1 | 12.2 | 0.00 | 0.00 | 0.00 | 65 | 1009.7 |
| 20260505015705 | 65 | 190 | 7.8 | 13.0 | 0.00 | 0.00 | 0.00 | 65 | 1009.8 |
| 20260505015204 | 65 | 198 | 7.8 | 13.0 | 0.00 | 0.00 | 0.00 | 65 | 1009.9 |
| 20260505014704 | 66 | 198 | 7.0 | 11.3 | 0.00 | 0.00 | 0.00 | 64 | 1009.8 |
| 20260505014204 | 66 | 186 | 7.8 | 11.3 | 0.00 | 0.00 | 0.00 | 63 | 1009.8 |
| 20260505013705 | 66 | 192 | 6.1 | 12.2 | 0.00 | 0.00 | 0.00 | 63 | 1009.8 |
| 20260505013204 | 66 | 206 | 6.1 | 15.6 | 0.00 | 0.00 | 0.00 | 61 | 1009.8 |
| 20260505012704 | 66 | 199 | 6.1 | 12.2 | 0.00 | 0.00 | 0.00 | 60 | 1009.8 |
| 20260505012204 | 66 | 198 | 7.0 | 14.8 | 0.00 | 0.00 | 0.00 | 59 | 1009.7 |
| 20260505011704 | 67 | 171 | 7.8 | 13.9 | 0.00 | 0.00 | 0.00 | 56 | 1009.6 |
| 20260505011205 | 67 | 186 | 7.0 | 10.4 | 0.00 | 0.00 | 0.00 | 55 | 1009.4 |
| 20260505010205 | 67 | 171 | 5.2 | 12.2 | 0.00 | 0.00 | 0.00 | 53 | 1009.4 |
| 20260505005705 | 67 | 186 | 6.1 | 12.2 | 0.00 | 0.00 | 0.00 | 54 | 1009.2 |
| 20260505005204 | 67 | 193 | 6.1 | 13.0 | 0.00 | 0.00 | 0.00 | 54 | 1009.2 |
| 20260505004704 | 67 | 193 | 6.1 | 10.4 | 0.00 | 0.00 | 0.00 | 54 | 1009.2 |
| 20260505004204 | 67 | 194 | 5.2 | 7.8 | 0.00 | 0.00 | 0.00 | 54 | 1009.2 |
| 20260505003704 | 67 | 188 | 4.3 | 7.8 | 0.00 | 0.00 | 0.00 | 53 | 1009.1 |
| 20260505003205 | 67 | 191 | 3.5 | 7.8 | 0.00 | 0.00 | 0.00 | 54 | 1009.2 |
| 20260505002204 | 67 | 193 | 4.3 | 6.1 | 0.00 | 0.00 | 0.00 | 54 | 1009.2 |
| 20260505001705 | 68 | 190 | 4.3 | 7.8 | 0.00 | 0.00 | 0.00 | 52 | 1009.2 |
| 20260505001204 | 68 | 185 | 3.5 | 6.1 | 0.00 | 0.00 | 0.00 | 54 | 1009.2 |
| 20260505000705 | 68 | 190 | 3.5 | 6.1 | 0.00 | 0.00 | 0.00 | 52 | 1009.2 |
| 20260505000205 | 68 | 201 | 5.2 | 8.7 | 0.00 | 0.00 | 0.00 | 53 | 1009.2 |
| 20260504235205 | 68 | 200 | 5.2 | 10.4 | 0.00 | 0.00 | 0.00 | 51 | 1009.2 |
| 20260504234705 | 68 | 182 | 6.1 | 8.7 | 0.00 | 0.00 | 0.00 | 51 | 1009.2 |
| 20260504234204 | 69 | 205 | 7.0 | 12.2 | 0.00 | 0.00 | 0.00 | 53 | 1009.2 |
| 20260504233704 | 69 | 209 | 7.0 | 10.4 | 0.00 | 0.00 | 0.00 | 54 | 1009.2 |
| 20260504232205 | 69 | 204 | 7.8 | 12.2 | 0.00 | 0.00 | 0.00 | 50 | 1009.1 |
| 20260504231704 | 70 | 195 | 7.8 | 13.9 | 0.00 | 0.00 | 0.00 | 48 | 1009.0 |
| 20260504230205 | 70 | 181 | 6.1 | 13.0 | 0.00 | 0.00 | 0.00 | 47 | 1009.0 |
| 20260504225705 | 70 | 183 | 7.8 | 13.9 | 0.00 | 0.00 | 0.00 | 47 | 1009.1 |
| 20260504225204 | 70 | 190 | 8.7 | 13.9 | 0.00 | 0.00 | 0.00 | 46 | 1009.0 |
| 20260504224204 | 70 | 195 | 6.1 | 15.6 | 0.00 | 0.00 | 0.00 | 45 | 1009.0 |
| 20260504223705 | 70 | 170 | 8.7 | 17.4 | 0.00 | 0.00 | 0.00 | 43 | 1009.0 |
| 20260504223204 | 70 | 198 | 7.8 | 13.9 | 0.00 | 0.00 | 0.00 | 44 | 1008.9 |
| 20260504222704 | 70 | 192 | 7.8 | 13.0 | 0.00 | 0.00 | 0.00 | 43 | 1009.0 |
| 20260504222204 | 71 | 163 | 8.7 | 14.8 | 0.00 | 0.00 | 0.00 | 43 | 1009.0 |
| 20260504221204 | 71 | 186 | 7.8 | 13.0 | 0.00 | 0.00 | 0.00 | 41 | 1009.1 |
| 20260504220705 | 71 | 196 | 8.7 | 13.0 | 0.00 | 0.00 | 0.00 | 44 | 1009.2 |
| 20260504220205 | 71 | 193 | 7.8 | 13.9 | 0.00 | 0.00 | 0.00 | 44 | 1009.1 |
| 20260504215704 | 72 | 182 | 8.7 | 15.6 | 0.00 | 0.00 | 0.00 | 44 | 1009.1 |
| 20260504215204 | 72 | 195 | 8.7 | 13.9 | 0.00 | 0.00 | 0.00 | 42 | 1009.1 |
| 20260504214704 | 73 | 181 | 8.7 | 13.9 | 0.00 | 0.00 | 0.00 | 41 | 1009.1 |
| 20260504214204 | 73 | 198 | 9.6 | 17.4 | 0.00 | 0.00 | 0.00 | 41 | 1009.0 |
| 20260504213704 | 74 | 170 | 9.6 | 17.4 | 0.00 | 0.00 | 0.00 | 40 | 1009.2 |
| 20260504213205 | 74 | 183 | 6.1 | 13.0 | 0.00 | 0.00 | 0.00 | 41 | 1009.1 |
| 20260504212204 | 75 | 190 | 8.7 | 17.4 | 0.00 | 0.00 | 0.00 | 41 | 1009.2 |
| 20260504211705 | 74 | 194 | 7.8 | 14.8 | 0.00 | 0.00 | 0.00 | 41 | 1009.3 |
| 20260504211205 | 74 | 201 | 7.8 | 12.2 | 0.00 | 0.00 | 0.00 | 42 | 1009.3 |
| 20260504210704 | 74 | 185 | 8.7 | 14.8 | 0.00 | 0.00 | 0.00 | 42 | 1009.2 |
| 20260504205704 | 75 | 200 | 7.0 | 11.3 | 0.00 | 0.00 | 0.00 | 40 | 1009.3 |
| 20260504205204 | 74 | 182 | 7.8 | 14.8 | 0.00 | 0.00 | 0.00 | 40 | 1009.2 |
| 20260504204704 | 75 | 202 | 8.7 | 13.0 | 0.00 | 0.00 | 0.00 | 41 | 1009.3 |
| 20260504204204 | 75 | 204 | 7.8 | 13.9 | 0.00 | 0.00 | 0.00 | 39 | 1009.3 |
| 20260504203704 | 75 | 211 | 8.7 | 17.4 | 0.00 | 0.00 | 0.00 | 39 | 1009.3 |
| 20260504203204 | 75 | 187 | 10.4 | 17.4 | 0.00 | 0.00 | 0.00 | 38 | 1009.3 |
| 20260504202704 | 74 | 194 | 8.7 | 14.8 | 0.00 | 0.00 | 0.00 | 40 | 1009.4 |
| 20260504202204 | 74 | 202 | 8.7 | 18.2 | 0.00 | 0.00 | 0.00 | 37 | 1009.5 |
| 20260504201704 | 74 | 209 | 8.7 | 17.4 | 0.00 | 0.00 | 0.00 | 42 | 1009.6 |
| 20260504201204 | 74 | 196 | 9.6 | 15.6 | 0.00 | 0.00 | 0.00 | 40 | 1009.6 |
| 20260504200704 | 74 | 193 | 8.7 | 17.4 | 0.00 | 0.00 | 0.00 | 39 | 1009.6 |
| 20260504200204 | 74 | 205 | 8.7 | 12.2 | 0.00 | 0.00 | 0.00 | 41 | 1009.7 |
| 20260504195204 | 74 | 205 | 8.7 | 17.4 | 0.00 | 0.00 | 0.00 | 38 | 1009.9 |
| 20260504194704 | 74 | 210 | 7.8 | 11.3 | 0.00 | 0.00 | 0.00 | 38 | 1009.9 |
| 20260504194204 | 74 | 209 | 7.8 | 13.9 | 0.00 | 0.00 | 0.00 | 40 | 1010.0 |
| 20260504193704 | 74 | 213 | 9.6 | 13.9 | 0.00 | 0.00 | 0.00 | 39 | 1010.2 |
| 20260504193204 | 74 | 204 | 7.8 | 13.9 | 0.00 | 0.00 | 0.00 | 39 | 1010.2 |
| 20260504192704 | 74 | 195 | 10.4 | 14.8 | 0.00 | 0.00 | 0.00 | 40 | 1010.3 |
| 20260504192204 | 73 | 202 | 7.8 | 10.4 | 0.00 | 0.00 | 0.00 | 41 | 1010.3 |
| 20260504191704 | 73 | 187 | 7.8 | 13.0 | 0.00 | 0.00 | 0.00 | 40 | 1010.4 |
| 20260504191204 | 73 | 192 | 6.1 | 11.3 | 0.00 | 0.00 | 0.00 | 42 | 1010.4 |
| 20260504190204 | 73 | 204 | 7.8 | 11.3 | 0.00 | 0.00 | 0.00 | 41 | 1010.5 |
| 20260504185704 | 73 | 194 | 6.1 | 13.9 | 0.00 | 0.00 | 0.00 | 39 | 1010.6 |
| 20260504185204 | 73 | 200 | 8.7 | 14.8 | 0.00 | 0.00 | 0.00 | 37 | 1010.7 |
| 20260504184704 | 73 | 201 | 10.4 | 14.8 | 0.00 | 0.00 | 0.00 | 40 | 1010.8 |
| 20260504184204 | 72 | 177 | 8.7 | 14.8 | 0.00 | 0.00 | 0.00 | 36 | 1010.9 |
| 20260504183704 | 72 | 202 | 7.8 | 11.3 | 0.00 | 0.00 | 0.00 | 41 | 1011.0 |
| 20260504183204 | 72 | 189 | 9.6 | 15.6 | 0.00 | 0.00 | 0.00 | 37 | 1011.1 |
| 20260504182204 | 72 | 194 | 9.6 | 13.9 | 0.00 | 0.00 | 0.00 | 37 | 1011.2 |
| 20260504181204 | 72 | 195 | 7.8 | 13.9 | 0.00 | 0.00 | 0.00 | 39 | 1011.2 |
| 20260504180704 | 72 | 206 | 8.7 | 12.2 | 0.00 | 0.00 | 0.00 | 39 | 1011.3 |
| 20260504180204 | 72 | 195 | 8.7 | 12.2 | 0.00 | 0.00 | 0.00 | 40 | 1011.4 |
| 20260504175705 | 72 | 207 | 7.8 | 11.3 | 0.00 | 0.00 | 0.00 | 39 | 1011.5 |
| 20260504175204 | 72 | 199 | 7.8 | 11.3 | 0.00 | 0.00 | 0.00 | 41 | 1011.6 |
| 20260504174704 | 71 | 204 | 7.8 | 10.4 | 0.00 | 0.00 | 0.00 | 43 | 1011.6 |
| 20260504174204 | 71 | 202 | 7.8 | 11.3 | 0.00 | 0.00 | 0.00 | 40 | 1011.7 |
| 20260504173704 | 71 | 208 | 7.0 | 13.0 | 0.00 | 0.00 | 0.00 | 40 | 1011.7 |
| 20260504173204 | 71 | 210 | 7.0 | 12.2 | 0.00 | 0.00 | 0.00 | 39 | 1011.7 |
| 20260504172704 | 71 | 209 | 8.7 | 13.0 | 0.00 | 0.00 | 0.00 | 39 | 1011.7 |
| 20260504171704 | 70 | 210 | 7.0 | 10.4 | 0.00 | 0.00 | 0.00 | 40 | 1011.8 |
| 20260504171204 | 70 | 179 | 7.0 | 10.4 | 0.00 | 0.00 | 0.00 | 41 | 1011.7 |
| 20260504170704 | 70 | 175 | 5.2 | 8.7 | 0.00 | 0.00 | 0.00 | 43 | 1011.8 |
| 20260504170205 | 70 | 203 | 6.1 | 10.4 | 0.00 | 0.00 | 0.00 | 43 | 1011.8 |
| 20260504160204 | 68 | 160 | 5.2 | 10.4 | 0.00 | 0.00 | 0.00 | 44 | 1012.6 |
| 20260504150204 | 68 | 199 | 7.8 | 10.4 | 0.00 | 0.00 | 0.00 | 49 | 1013.1 |
| 20260504141204 | 64 | 202 | 7.8 | 10.4 | 0.00 | 0.00 | 0.00 | 53 | 1013.2 |
| 20260504140704 | 64 | 202 | 6.1 | 7.8 | 0.00 | 0.00 | 0.00 | 51 | 1013.2 |
| 20260504120203 | 59 | 207 | 8.7 | 12.2 | 0.00 | 0.00 | 0.00 | 63 | 1013.9 |
| 20260504110704 | 55 | 210 | 7.8 | 11.3 | 0.00 | 0.00 | 0.00 | 69 | 1014.2 |
| 20260504110204 | 55 | 193 | 8.7 | 11.3 | 0.00 | 0.00 | 0.00 | 69 | 1014.4 |
| 20260504100203 | 56 | 218 | 9.6 | 12.2 | 0.00 | 0.00 | 0.00 | 68 | 1014.4 |
| 20260504081705 | 57 | 194 | 9.6 | 17.4 | 0.00 | 0.00 | 0.00 | 68 | 1014.2 |
| 20260504081206 | 57 | 197 | 9.6 | 17.4 | 0.00 | 0.00 | 0.00 | 70 | 1014.2 |
| 20260504080706 | 57 | 199 | 7.0 | 13.0 | 0.00 | 0.00 | 0.00 | 69 | 1014.2 |
| 20260504080205 | 57 | 198 | 10.4 | 14.8 | 0.00 | 0.00 | 0.00 | 70 | 1014.2 |
| 20260504070206 | 56 | 213 | 9.6 | 13.0 | 0.00 | 0.00 | 0.00 | 72 | 1014.5 |
| 20260504060206 | 55 | 195 | 7.8 | 12.2 | 0.00 | 0.00 | 0.00 | 71 | 1014.6 |